TimeCDT,TemperatureF,Dew PointF,Humidity,Sea Level PressureIn,VisibilityMPH,Wind Direction,Wind SpeedMPH,Gust SpeedMPH,PrecipitationIn,Events,Conditions,WindDirDegrees,DateUTC
12:53 AM,75.0,71.1,87,29.90,10.0,South,3.5,-,N/A,,Clear,180,2013-07-25 05:53:00
1:31 AM,75.2,71.6,89,29.90,10.0,Calm,Calm,-,N/A,,Mostly Cloudy,0,2013-07-25 06:31:00
1:53 AM,73.9,71.1,91,29.88,10.0,Calm,Calm,-,N/A,,Scattered Clouds,0,2013-07-25 06:53:00
2:53 AM,73.0,70.0,90,29.88,6.0,Calm,Calm,-,N/A,,Clear,0,2013-07-25 07:53:00
3:37 AM,73.4,69.8,88,29.90,2.5,Calm,Calm,-,N/A,,Clear,0,2013-07-25 08:37:00
3:45 AM,71.6,69.8,94,29.90,4.0,ENE,3.5,-,N/A,,Clear,70,2013-07-25 08:45:00
3:53 AM,72.0,70.0,93,29.89,5.0,Calm,Calm,-,N/A,,Partly Cloudy,0,2013-07-25 08:53:00
4:31 AM,71.6,69.8,94,29.92,6.0,Calm,Calm,-,N/A,,Mostly Cloudy,0,2013-07-25 09:31:00
4:41 AM,73.4,69.8,88,29.92,6.0,Calm,Calm,-,N/A,,Overcast,0,2013-07-25 09:41:00
4:53 AM,73.0,71.1,93,29.92,7.0,Calm,Calm,-,N/A,,Overcast,0,2013-07-25 09:53:00
5:19 AM,73.4,71.6,94,29.93,1.8,Calm,Calm,-,N/A,,Overcast,0,2013-07-25 10:19:00
5:31 AM,73.4,71.6,94,29.93,0.8,Calm,Calm,-,N/A,,Overcast,0,2013-07-25 10:31:00
5:42 AM,73.4,71.6,94,29.93,1.5,Calm,Calm,-,N/A,,Overcast,0,2013-07-25 10:42:00
5:47 AM,73.4,71.6,94,29.93,3.0,Calm,Calm,-,N/A,,Overcast,0,2013-07-25 10:47:00
5:53 AM,73.9,72.0,93,29.93,5.0,Calm,Calm,-,N/A,,Overcast,0,2013-07-25 10:53:00
6:53 AM,75.0,72.0,90,29.94,5.0,NNW,3.5,-,N/A,,Mostly Cloudy,330,2013-07-25 11:53:00
7:17 AM,75.2,73.4,94,29.95,6.0,NNW,3.5,-,N/A,,Scattered Clouds,330,2013-07-25 12:17:00
7:53 AM,78.1,71.1,79,29.96,10.0,NNW,5.8,-,N/A,,Clear,330,2013-07-25 12:53:00
8:53 AM,82.0,73.0,74,29.96,10.0,NNW,3.5,-,N/A,,Clear,340,2013-07-25 13:53:00
9:53 AM,84.0,73.0,69,29.97,10.0,North,4.6,-,N/A,,Partly Cloudy,10,2013-07-25 14:53:00
10:13 AM,84.2,73.4,70,29.98,10.0,NNW,3.5,-,N/A,,Mostly Cloudy,330,2013-07-25 15:13:00
10:20 AM,84.2,73.4,70,29.98,10.0,Calm,Calm,-,N/A,,Scattered Clouds,0,2013-07-25 15:20:00
10:46 AM,84.2,73.4,70,29.99,10.0,Calm,Calm,-,N/A,,Mostly Cloudy,0,2013-07-25 15:46:00
10:53 AM,84.9,73.9,69,29.98,10.0,North,5.8,-,N/A,,Mostly Cloudy,360,2013-07-25 15:53:00
11:07 AM,87.8,73.4,62,29.99,10.0,Variable,3.5,-,N/A,,Mostly Cloudy,0,2013-07-25 16:07:00
11:19 AM,86.0,73.4,66,30.00,10.0,Calm,Calm,-,N/A,,Mostly Cloudy,0,2013-07-25 16:19:00
11:44 AM,84.2,73.4,70,30.00,10.0,NNW,4.6,-,N/A,,Mostly Cloudy,330,2013-07-25 16:44:00
11:53 AM,86.0,73.9,67,29.99,10.0,Variable,3.5,-,N/A,,Scattered Clouds,0,2013-07-25 16:53:00
12:53 PM,88.0,73.0,61,29.99,10.0,North,4.6,-,N/A,,Mostly Cloudy,10,2013-07-25 17:53:00
1:53 PM,89.1,72.0,57,29.98,10.0,North,5.8,-,N/A,,Scattered Clouds,350,2013-07-25 18:53:00
2:53 PM,91.0,72.0,53,29.97,10.0,North,6.9,-,N/A,,Partly Cloudy,350,2013-07-25 19:53:00
3:53 PM,90.0,72.0,55,29.97,10.0,North,6.9,-,N/A,,Partly Cloudy,350,2013-07-25 20:53:00
4:53 PM,90.0,73.0,57,29.97,10.0,NW,4.6,-,N/A,,Scattered Clouds,320,2013-07-25 21:53:00
5:53 PM,89.1,73.0,59,29.97,10.0,NNW,4.6,-,N/A,,Partly Cloudy,340,2013-07-25 22:53:00
6:53 PM,87.1,73.0,63,29.99,10.0,NW,4.6,-,N/A,,Clear,320,2013-07-25 23:53:00
7:53 PM,81.0,73.0,77,29.99,10.0,Calm,Calm,-,N/A,,Clear,0,2013-07-26 00:53:00
8:53 PM,77.0,73.9,90,29.99,8.0,Calm,Calm,-,N/A,,Clear,0,2013-07-26 01:53:00
9:53 PM,75.9,73.0,91,30.01,6.0,Calm,Calm,-,N/A,,Clear,0,2013-07-26 02:53:00
10:53 PM,75.0,72.0,90,30.02,5.0,Calm,Calm,-,N/A,,Clear,0,2013-07-26 03:53:00
11:53 PM,73.9,71.1,91,30.03,-9999.0,Calm,Calm,-,N/A,,Clear,0,2013-07-26 04:53:00